User: anonymous   Login
Location: Asarope
(8.2500°N, 4.4833°E)
Time: 17:49:27
(UTC+00:00)
Language:

Meteor 1-27 Rocket - Orbit

View from above orbital plane
View from above orbital plane
View from above satellite
View from above satellite

Ground track
Ground track

The orbit data is extracted from the following two-line orbital elements,

1  9904U 77024B   20227.58953853 +.00000180 +00000-0 +99720-4 0  9991
2  9904 081.2604 094.3531 0055040 317.2521 042.4373 14.06890132224897
Epoch (UTC): 14 August 2020 14:08:56
Eccentricity: 0.0055040
inclination: 81.2604°
perigee height: 830 km
apogee height: 910 km
right ascension of ascending node: 94.3531°
argument of perigee: 317.2521°
revolutions per day: 14.06890132
mean anomaly at epoch: 42.4373°
orbit number at epoch: 22489

The dashed part of the orbit path shows where the satellite is in the earth's shadow,  

DLR